Time,TemperatureF,DewpointF,PressureIn,WindDirection,WindDirectionDegrees,WindSpeedMPH,WindSpeedGustMPH,Humidity,HourlyPrecipIn,Conditions,Clouds,dailyrainin,SoftwareType,DateUTC
2013-04-20 00:02:00,41.3,30.8,30.68,SW,221,6.0,12.0,66,0.00,RA,RA,0.00,WeatherDisplay:10.37,2013-04-20 04:02:00,
2013-04-20 00:07:00,41.2,30.3,30.68,SW,226,10.0,14.0,65,0.00,RA,RA,0.00,WeatherDisplay:10.37,2013-04-20 04:07:00,
2013-04-20 00:12:00,41.2,30.7,30.68,SW,221,10.0,16.0,66,0.00,CLR,CLR,0.00,WeatherDisplay:10.37,2013-04-20 04:12:00,
2013-04-20 00:17:00,41.2,30.3,30.68,SW,222,13.0,23.0,65,0.00,CLR,CLR,0.00,WeatherDisplay:10.37,2013-04-20 04:17:00,
2013-04-20 00:22:00,41.3,30.0,30.68,SW,218,16.0,23.0,64,0.00,CLR,CLR,0.00,WeatherDisplay:10.37,2013-04-20 04:22:00,
2013-04-20 00:27:00,41.3,29.7,30.68,SSW,205,14.0,21.0,63,0.00,CLR,CLR,0.00,WeatherDisplay:10.37,2013-04-20 04:27:00,
2013-04-20 00:32:00,41.3,30.4,30.68,SSW,212,9.0,15.0,65,0.00,CLR,CLR,0.00,WeatherDisplay:10.37,2013-04-20 04:32:00,
2013-04-20 00:37:00,41.3,30.0,30.68,SW,215,12.0,16.0,64,0.00,CLR,CLR,0.00,WeatherDisplay:10.37,2013-04-20 04:37:00,
2013-04-20 00:42:00,41.3,30.4,30.68,SSW,211,12.0,17.0,65,0.00,CLR,CLR,0.00,WeatherDisplay:10.37,2013-04-20 04:42:00,
2013-04-20 00:47:00,41.2,30.7,30.68,SSW,213,9.0,12.0,66,0.00,CLR,CLR,0.00,WeatherDisplay:10.37,2013-04-20 04:47:00,
2013-04-20 00:52:00,41.1,31.0,30.69,SSW,209,16.0,23.0,67,0.00,CLR,CLR,0.00,WeatherDisplay:10.37,2013-04-20 04:52:00,
2013-04-20 00:57:00,41.0,31.2,30.69,SSW,209,10.0,20.0,68,0.00,CLR,CLR,0.00,WeatherDisplay:10.37,2013-04-20 04:57:00,
2013-04-20 01:02:00,40.9,31.9,30.69,SSW,207,8.0,17.0,70,0.00,CLR,CLR,0.00,WeatherDisplay:10.37,2013-04-20 05:02:00,
2013-04-20 01:07:00,40.7,32.0,30.69,SSW,207,14.0,23.0,71,0.00,CLR,CLR,0.00,WeatherDisplay:10.37,2013-04-20 05:07:00,
2013-04-20 01:12:00,40.4,32.4,30.70,SSW,212,16.0,24.0,73,0.00,CLR,CLR,0.00,WeatherDisplay:10.37,2013-04-20 05:12:00,
2013-04-20 01:17:00,40.2,32.6,30.70,SW,218,9.0,14.0,74,0.00,CLR,CLR,0.00,WeatherDisplay:10.37,2013-04-20 05:17:00,
2013-04-20 01:22:00,40.2,32.6,30.70,SW,223,8.0,13.0,74,0.00,CLR,CLR,0.00,WeatherDisplay:10.37,2013-04-20 05:22:00,
2013-04-20 01:32:00,40.1,32.8,30.71,WSW,247,10.0,18.0,75,0.00,CLR,CLR,0.00,WeatherDisplay:10.37,2013-04-20 05:32:00,
2013-04-20 01:37:00,39.7,33.1,30.71,WSW,240,12.0,20.0,77,0.00,CLR,CLR,0.00,WeatherDisplay:10.37,2013-04-20 05:37:00,
2013-04-20 01:42:00,39.1,33.1,30.71,SW,224,14.0,20.0,79,0.00,CLR,CLR,0.00,WeatherDisplay:10.37,2013-04-20 05:42:00,
2013-04-20 01:47:00,38.2,33.2,30.72,SW,228,12.0,15.0,82,0.00,CLR,CLR,0.00,WeatherDisplay:10.37,2013-04-20 05:47:00,
2013-04-20 01:52:00,37.7,33.0,30.72,SW,230,12.0,16.0,83,0.00,CLR,CLR,0.00,WeatherDisplay:10.37,2013-04-20 05:52:00,
2013-04-20 01:57:00,37.4,33.3,30.72,WSW,240,12.0,17.0,85,0.01,RA,RA,0.01,WeatherDisplay:10.37,2013-04-20 05:57:00,
2013-04-20 02:02:00,37.2,33.4,30.72,WSW,244,12.0,15.0,86,0.00,RA,RA,0.01,WeatherDisplay:10.37,2013-04-20 06:02:00,
2013-04-20 02:07:00,37.0,33.2,30.72,WSW,246,9.0,17.0,86,0.00,CLR,CLR,0.01,WeatherDisplay:10.37,2013-04-20 06:07:00,
2013-04-20 02:12:00,36.9,33.4,30.72,WSW,240,8.0,13.0,87,0.00,CLR,CLR,0.01,WeatherDisplay:10.37,2013-04-20 06:12:00,
2013-04-20 02:17:00,36.5,33.0,30.72,WSW,237,6.0,9.0,87,0.00,CLR,CLR,0.01,WeatherDisplay:10.37,2013-04-20 06:17:00,
2013-04-20 02:22:00,36.1,32.9,30.72,SW,234,3.0,7.0,88,0.00,CLR,CLR,0.01,WeatherDisplay:10.37,2013-04-20 06:22:00,
2013-04-20 02:27:00,36.0,33.4,30.72,SSW,212,6.0,9.0,90,0.00,CLR,CLR,0.01,WeatherDisplay:10.37,2013-04-20 06:27:00,
2013-04-20 02:32:00,36.0,33.3,30.71,SSW,198,3.0,8.0,90,0.00,CLR,CLR,0.01,WeatherDisplay:10.37,2013-04-20 06:32:00,
2013-04-20 02:37:00,35.9,33.5,30.71,SSW,201,5.0,7.0,91,0.00,CLR,CLR,0.01,WeatherDisplay:10.37,2013-04-20 06:37:00,
2013-04-20 02:42:00,35.9,33.5,30.71,SSW,204,5.0,6.0,91,0.00,CLR,CLR,0.01,WeatherDisplay:10.37,2013-04-20 06:42:00,
2013-04-20 02:47:00,35.8,33.4,30.71,SSW,198,5.0,7.0,91,0.00,CLR,CLR,0.01,WeatherDisplay:10.37,2013-04-20 06:47:00,
2013-04-20 02:52:00,35.8,33.4,30.71,SSW,197,5.0,8.0,91,0.00,CLR,CLR,0.01,WeatherDisplay:10.37,2013-04-20 06:52:00,
2013-04-20 02:57:00,36.0,33.6,30.72,SSW,204,8.0,10.0,91,0.00,CLR,CLR,0.01,WeatherDisplay:10.37,2013-04-20 06:57:00,
2013-04-20 03:02:00,36.3,33.3,30.72,SSW,207,8.0,16.0,89,0.00,CLR,CLR,0.01,WeatherDisplay:10.37,2013-04-20 07:02:00,
2013-04-20 03:07:00,36.7,33.2,30.72,SSW,210,10.0,16.0,87,0.00,CLR,CLR,0.01,WeatherDisplay:10.37,2013-04-20 07:07:00,
2013-04-20 03:17:00,37.3,33.5,30.72,SW,216,9.0,15.0,86,0.00,CLR,CLR,0.01,WeatherDisplay:10.37,2013-04-20 07:17:00,
2013-04-20 03:22:00,37.4,33.3,30.72,SW,214,8.0,12.0,85,0.00,CLR,CLR,0.01,WeatherDisplay:10.37,2013-04-20 07:22:00,
2013-04-20 03:27:00,37.5,33.1,30.72,SW,214,7.0,17.0,84,0.00,CLR,CLR,0.01,WeatherDisplay:10.37,2013-04-20 07:27:00,
2013-04-20 03:32:00,37.7,33.0,30.72,SW,218,14.0,17.0,83,0.00,CLR,CLR,0.01,WeatherDisplay:10.37,2013-04-20 07:32:00,
2013-04-20 03:37:00,37.9,32.6,30.72,SW,222,12.0,23.0,81,0.00,CLR,CLR,0.01,WeatherDisplay:10.37,2013-04-20 07:37:00,
2013-04-20 03:42:00,38.0,32.4,30.72,SW,225,14.0,25.0,80,0.00,CLR,CLR,0.01,WeatherDisplay:10.37,2013-04-20 07:42:00,
2013-04-20 03:47:00,37.9,32.3,30.72,SW,228,13.0,21.0,80,0.00,CLR,CLR,0.01,WeatherDisplay:10.37,2013-04-20 07:47:00,
2013-04-20 03:52:00,37.9,32.2,30.73,SW,227,10.0,17.0,80,0.00,CLR,CLR,0.01,WeatherDisplay:10.37,2013-04-20 07:52:00,
2013-04-20 03:57:00,37.9,31.7,30.73,SW,229,10.0,22.0,78,0.00,CLR,CLR,0.01,WeatherDisplay:10.37,2013-04-20 07:57:00,
2013-04-20 04:02:00,37.8,31.2,30.73,SW,225,12.0,17.0,77,0.00,CLR,CLR,0.01,WeatherDisplay:10.37,2013-04-20 08:02:00,
2013-04-20 04:07:00,37.7,31.1,30.73,SW,225,9.0,15.0,77,0.00,CLR,CLR,0.01,WeatherDisplay:10.37,2013-04-20 08:07:00,
2013-04-20 04:12:00,37.6,31.4,30.74,SW,228,8.0,14.0,78,0.00,CLR,CLR,0.01,WeatherDisplay:10.37,2013-04-20 08:12:00,
2013-04-20 04:17:00,37.7,31.4,30.74,WSW,238,8.0,13.0,78,0.00,CLR,CLR,0.01,WeatherDisplay:10.37,2013-04-20 08:17:00,
2013-04-20 04:22:00,37.7,31.1,30.74,WSW,238,9.0,13.0,77,0.00,CLR,CLR,0.01,WeatherDisplay:10.37,2013-04-20 08:22:00,
2013-04-20 04:27:00,37.8,31.2,30.74,SW,233,13.0,16.0,77,0.00,CLR,CLR,0.01,WeatherDisplay:10.37,2013-04-20 08:27:00,
2013-04-20 04:32:00,37.8,31.3,30.74,WSW,238,10.0,17.0,77,0.00,CLR,CLR,0.01,WeatherDisplay:10.37,2013-04-20 08:32:00,
2013-04-20 04:37:00,37.8,30.9,30.74,SW,235,9.0,18.0,76,0.00,CLR,CLR,0.01,WeatherDisplay:10.37,2013-04-20 08:37:00,
2013-04-20 04:42:00,37.8,30.9,30.75,SW,229,12.0,22.0,76,0.00,CLR,CLR,0.01,WeatherDisplay:10.37,2013-04-20 08:42:00,
2013-04-20 04:47:00,37.8,30.9,30.75,SW,234,9.0,18.0,76,0.00,CLR,CLR,0.01,WeatherDisplay:10.37,2013-04-20 08:47:00,
2013-04-20 04:52:00,37.9,30.7,30.75,SW,231,10.0,24.0,75,0.01,RA,RA,0.02,WeatherDisplay:10.37,2013-04-20 08:52:00,
2013-04-20 04:57:00,37.9,31.0,30.75,SW,227,10.0,18.0,76,0.00,RA,RA,0.02,WeatherDisplay:10.37,2013-04-20 08:57:00,
2013-04-20 05:02:00,37.9,30.7,30.75,SW,230,10.0,21.0,75,0.00,CLR,CLR,0.02,WeatherDisplay:10.37,2013-04-20 09:02:00,
2013-04-20 05:07:00,37.9,30.7,30.75,SW,233,9.0,13.0,75,0.00,CLR,CLR,0.02,WeatherDisplay:10.37,2013-04-20 09:07:00,
2013-04-20 05:12:00,37.8,30.9,30.75,SW,236,8.0,17.0,76,0.00,CLR,CLR,0.02,WeatherDisplay:10.37,2013-04-20 09:12:00,
2013-04-20 05:17:00,38.0,30.4,30.75,SW,232,9.0,20.0,74,0.00,CLR,CLR,0.02,WeatherDisplay:10.37,2013-04-20 09:17:00,
2013-04-20 05:22:00,38.0,30.1,30.76,SW,230,13.0,16.0,73,0.00,CLR,CLR,0.02,WeatherDisplay:10.37,2013-04-20 09:22:00,
2013-04-20 05:27:00,38.1,30.2,30.75,SW,222,10.0,20.0,73,0.00,CLR,CLR,0.02,WeatherDisplay:10.37,2013-04-20 09:27:00,
2013-04-20 05:32:00,38.1,30.2,30.76,SW,231,12.0,18.0,73,0.00,CLR,CLR,0.02,WeatherDisplay:10.37,2013-04-20 09:32:00,
2013-04-20 05:37:00,38.0,30.4,30.76,SW,235,7.0,20.0,74,0.00,CLR,CLR,0.02,WeatherDisplay:10.37,2013-04-20 09:37:00,
2013-04-20 05:42:00,38.0,30.4,30.76,WSW,237,8.0,18.0,74,0.00,CLR,CLR,0.02,WeatherDisplay:10.37,2013-04-20 09:42:00,
2013-04-20 05:47:00,38.0,30.1,30.77,WSW,238,10.0,18.0,73,0.00,CLR,CLR,0.02,WeatherDisplay:10.37,2013-04-20 09:47:00,
2013-04-20 05:52:00,38.1,30.2,30.77,SW,230,10.0,20.0,73,0.00,CLR,CLR,0.02,WeatherDisplay:10.37,2013-04-20 09:52:00,
2013-04-20 05:57:00,38.1,30.2,30.77,SW,235,13.0,20.0,73,0.00,CLR,CLR,0.02,WeatherDisplay:10.37,2013-04-20 09:57:00,
2013-04-20 06:02:00,38.0,30.1,30.77,WSW,239,14.0,21.0,73,0.00,CLR,CLR,0.02,WeatherDisplay:10.37,2013-04-20 10:02:00,
2013-04-20 06:07:00,38.0,30.1,30.77,SW,233,6.0,16.0,73,0.00,CLR,CLR,0.02,WeatherDisplay:10.37,2013-04-20 10:07:00,
2013-04-20 06:12:00,38.0,29.8,30.77,SW,234,10.0,18.0,72,0.00,CLR,CLR,0.02,WeatherDisplay:10.37,2013-04-20 10:12:00,
2013-04-20 06:17:00,38.0,30.1,30.77,SW,224,8.0,16.0,73,0.00,CLR,CLR,0.02,WeatherDisplay:10.37,2013-04-20 10:17:00,
2013-04-20 06:22:00,37.9,30.4,30.78,SW,218,8.0,12.0,74,0.00,CLR,CLR,0.02,WeatherDisplay:10.37,2013-04-20 10:22:00,
2013-04-20 06:27:00,37.9,30.4,30.78,SW,223,8.0,14.0,74,0.00,CLR,CLR,0.02,WeatherDisplay:10.37,2013-04-20 10:27:00,
2013-04-20 06:32:00,38.0,30.4,30.78,SW,226,9.0,14.0,74,0.00,CLR,CLR,0.02,WeatherDisplay:10.37,2013-04-20 10:32:00,
2013-04-20 06:37:00,38.0,30.4,30.79,SW,236,8.0,12.0,74,0.00,CLR,CLR,0.02,WeatherDisplay:10.37,2013-04-20 10:37:00,
2013-04-20 06:42:00,37.9,30.7,30.80,West,261,7.0,12.0,75,0.00,CLR,CLR,0.02,WeatherDisplay:10.37,2013-04-20 10:42:00,
2013-04-20 06:47:00,37.4,31.5,30.80,West,277,7.0,18.0,79,0.00,CLR,CLR,0.02,WeatherDisplay:10.37,2013-04-20 10:47:00,
2013-04-20 06:52:00,36.2,31.5,30.81,West,276,8.0,14.0,83,0.00,CLR,CLR,0.02,WeatherDisplay:10.37,2013-04-20 10:52:00,
2013-04-20 06:57:00,35.3,31.3,30.81,West,267,7.0,13.0,85,0.00,CLR,CLR,0.02,WeatherDisplay:10.37,2013-04-20 10:57:00,
2013-04-20 07:02:00,34.7,31.3,30.81,West,261,8.0,17.0,87,0.00,CLR,CLR,0.02,WeatherDisplay:10.37,2013-04-20 11:02:00,
2013-04-20 07:07:00,34.4,31.2,30.81,WSW,257,8.0,15.0,88,0.00,CLR,CLR,0.02,WeatherDisplay:10.37,2013-04-20 11:07:00,
2013-04-20 07:12:00,34.4,30.9,30.81,West,262,10.0,21.0,87,0.00,CLR,CLR,0.02,WeatherDisplay:10.37,2013-04-20 11:12:00,
2013-04-20 07:17:00,34.4,31.2,30.82,West,265,9.0,13.0,88,0.00,CLR,CLR,0.02,WeatherDisplay:10.37,2013-04-20 11:17:00,
2013-04-20 07:22:00,34.4,31.2,30.83,West,259,7.0,15.0,88,0.00,CLR,CLR,0.02,WeatherDisplay:10.37,2013-04-20 11:22:00,
2013-04-20 07:27:00,34.4,31.5,30.82,WSW,257,5.0,12.0,89,0.00,CLR,CLR,0.02,WeatherDisplay:10.37,2013-04-20 11:27:00,
2013-04-20 07:32:00,34.4,31.5,30.83,West,259,8.0,12.0,89,0.00,CLR,CLR,0.02,WeatherDisplay:10.37,2013-04-20 11:32:00,
2013-04-20 07:37:00,34.6,32.0,30.83,WSW,254,5.0,8.0,90,0.00,CLR,CLR,0.02,WeatherDisplay:10.37,2013-04-20 11:37:00,
2013-04-20 07:42:00,34.8,31.9,30.83,WSW,252,5.0,9.0,89,0.00,CLR,CLR,0.02,WeatherDisplay:10.37,2013-04-20 11:42:00,
2013-04-20 07:47:00,35.0,32.0,30.83,WSW,251,3.0,7.0,89,0.00,CLR,CLR,0.02,WeatherDisplay:10.37,2013-04-20 11:47:00,
2013-04-20 07:52:00,35.2,32.3,30.83,WSW,252,6.0,8.0,89,0.00,CLR,CLR,0.02,WeatherDisplay:10.37,2013-04-20 11:52:00,
2013-04-20 07:57:00,35.4,32.2,30.84,WSW,251,6.0,10.0,88,0.00,CLR,CLR,0.02,WeatherDisplay:10.37,2013-04-20 11:57:00,
2013-04-20 08:02:00,35.6,32.1,30.84,WSW,240,6.0,8.0,87,0.00,CLR,CLR,0.02,WeatherDisplay:10.37,2013-04-20 12:02:00,
2013-04-20 08:07:00,35.7,32.2,30.84,WSW,241,6.0,10.0,87,0.00,CLR,CLR,0.02,WeatherDisplay:10.37,2013-04-20 12:07:00,
2013-04-20 08:12:00,35.9,32.4,30.84,SW,236,7.0,12.0,87,0.00,CLR,CLR,0.02,WeatherDisplay:10.37,2013-04-20 12:12:00,
2013-04-20 08:17:00,36.4,32.0,30.85,WSW,238,8.0,12.0,84,0.00,CLR,CLR,0.02,WeatherDisplay:10.37,2013-04-20 12:17:00,
2013-04-20 08:22:00,36.4,31.4,30.85,WSW,247,8.0,14.0,82,0.00,CLR,CLR,0.02,WeatherDisplay:10.37,2013-04-20 12:22:00,
2013-04-20 08:27:00,36.4,31.5,30.85,WSW,242,9.0,20.0,82,0.00,CLR,CLR,0.02,WeatherDisplay:10.37,2013-04-20 12:27:00,
2013-04-20 08:32:00,36.7,31.4,30.85,WSW,242,8.0,13.0,81,0.00,CLR,CLR,0.02,WeatherDisplay:10.37,2013-04-20 12:32:00,
2013-04-20 08:37:00,36.9,31.3,30.85,WSW,244,9.0,18.0,80,0.00,CLR,CLR,0.02,WeatherDisplay:10.37,2013-04-20 12:37:00,
2013-04-20 08:42:00,36.6,31.0,30.86,WSW,237,13.0,20.0,80,0.00,CLR,CLR,0.02,WeatherDisplay:10.37,2013-04-20 12:42:00,
2013-04-20 08:47:00,36.1,31.1,30.87,WSW,249,8.0,15.0,82,0.00,CLR,CLR,0.02,WeatherDisplay:10.37,2013-04-20 12:47:00,
2013-04-20 08:52:00,35.1,31.6,30.88,WSW,255,10.0,17.0,87,0.00,CLR,CLR,0.02,WeatherDisplay:10.37,2013-04-20 12:52:00,
2013-04-20 08:57:00,34.1,31.5,30.88,WSW,256,6.0,14.0,90,0.00,CLR,CLR,0.02,WeatherDisplay:10.37,2013-04-20 12:57:00,
2013-04-20 09:02:00,33.7,31.4,30.88,West,261,6.0,13.0,91,0.00,CLR,CLR,0.02,WeatherDisplay:10.37,2013-04-20 13:02:00,
2013-04-20 09:07:00,33.5,31.4,30.89,WSW,256,7.0,16.0,92,0.00,CLR,CLR,0.02,WeatherDisplay:10.37,2013-04-20 13:07:00,
2013-04-20 09:12:00,33.5,31.5,30.89,WSW,246,7.0,12.0,92,0.00,CLR,CLR,0.02,WeatherDisplay:10.37,2013-04-20 13:12:00,
2013-04-20 09:17:00,33.7,31.9,30.89,WSW,248,8.0,13.0,93,0.00,CLR,CLR,0.02,WeatherDisplay:10.37,2013-04-20 13:17:00,
2013-04-20 09:22:00,33.8,33.0,30.90,WSW,245,6.0,12.0,97,0.00,CLR,CLR,0.02,WeatherDisplay:10.37,2013-04-20 13:22:00,
2013-04-20 09:27:00,34.0,32.2,30.90,WSW,244,7.0,13.0,93,0.01,RA,RA,0.03,WeatherDisplay:10.37,2013-04-20 13:27:00,
2013-04-20 09:32:00,34.3,32.5,30.90,WSW,240,7.0,12.0,93,0.00,RA,RA,0.03,WeatherDisplay:10.37,2013-04-20 13:32:00,
2013-04-20 09:37:00,34.6,32.7,30.90,SW,227,8.0,12.0,93,0.00,CLR,CLR,0.03,WeatherDisplay:10.37,2013-04-20 13:37:00,
2013-04-20 09:42:00,34.8,32.7,30.91,SW,227,8.0,13.0,92,0.00,CLR,CLR,0.03,WeatherDisplay:10.37,2013-04-20 13:42:00,
2013-04-20 09:47:00,35.2,33.2,30.91,SW,227,9.0,13.0,92,0.00,CLR,CLR,0.03,WeatherDisplay:10.37,2013-04-20 13:47:00,
2013-04-20 09:52:00,35.8,33.7,30.91,SW,228,10.0,13.0,92,0.00,CLR,CLR,0.03,WeatherDisplay:10.37,2013-04-20 13:52:00,
2013-04-20 09:57:00,36.1,33.5,30.91,SW,236,9.0,14.0,90,0.00,CLR,CLR,0.03,WeatherDisplay:10.37,2013-04-20 13:57:00,
2013-04-20 10:02:00,37.1,34.7,30.92,WSW,248,9.0,12.0,91,0.00,CLR,CLR,0.03,WeatherDisplay:10.37,2013-04-20 14:02:00,
2013-04-20 10:07:00,37.7,34.7,30.92,WSW,249,12.0,16.0,89,0.00,CLR,CLR,0.03,WeatherDisplay:10.37,2013-04-20 14:07:00,
2013-04-20 10:12:00,38.0,34.1,30.92,WSW,252,10.0,16.0,86,0.00,CLR,CLR,0.03,WeatherDisplay:10.37,2013-04-20 14:12:00,
2013-04-20 10:17:00,38.3,33.9,30.92,West,261,9.0,24.0,84,0.00,CLR,CLR,0.03,WeatherDisplay:10.37,2013-04-20 14:17:00,
2013-04-20 10:22:00,38.4,33.4,30.93,WSW,258,12.0,18.0,82,0.00,CLR,CLR,0.03,WeatherDisplay:10.37,2013-04-20 14:22:00,
2013-04-20 10:27:00,38.4,32.8,30.93,West,266,9.0,16.0,80,0.00,CLR,CLR,0.03,WeatherDisplay:10.37,2013-04-20 14:27:00,
2013-04-20 10:32:00,38.3,33.0,30.94,West,269,8.0,15.0,81,0.00,CLR,CLR,0.03,WeatherDisplay:10.37,2013-04-20 14:32:00,
2013-04-20 10:37:00,37.4,32.4,30.95,West,269,6.0,15.0,82,0.00,CLR,CLR,0.03,WeatherDisplay:10.37,2013-04-20 14:37:00,
2013-04-20 10:42:00,36.1,32.1,30.95,West,273,8.0,13.0,85,0.00,CLR,CLR,0.03,WeatherDisplay:10.37,2013-04-20 14:42:00,
2013-04-20 10:47:00,35.9,32.1,30.95,West,268,7.0,12.0,86,0.00,CLR,CLR,0.03,WeatherDisplay:10.37,2013-04-20 14:47:00,
2013-04-20 10:52:00,36.2,32.1,30.96,West,277,7.0,12.0,85,0.00,CLR,CLR,0.03,WeatherDisplay:10.37,2013-04-20 14:52:00,
2013-04-20 10:57:00,36.6,32.2,30.96,West,274,5.0,10.0,84,0.00,CLR,CLR,0.03,WeatherDisplay:10.37,2013-04-20 14:57:00,
2013-04-20 11:02:00,36.6,31.6,30.97,West,271,7.0,15.0,82,0.00,CLR,CLR,0.03,WeatherDisplay:10.37,2013-04-20 15:02:00,
2013-04-20 11:07:00,36.3,30.7,30.97,West,274,7.0,15.0,80,0.00,CLR,CLR,0.03,WeatherDisplay:10.37,2013-04-20 15:07:00,
2013-04-20 11:12:00,36.3,31.0,30.98,West,270,7.0,12.0,81,0.01,RA,RA,0.04,WeatherDisplay:10.37,2013-04-20 15:12:00,
2013-04-20 11:17:00,36.4,30.8,30.98,West,265,8.0,13.0,80,0.00,RA,RA,0.04,WeatherDisplay:10.37,2013-04-20 15:17:00,
2013-04-20 11:22:00,36.3,30.4,30.99,West,264,7.0,16.0,79,0.00,CLR,CLR,0.04,WeatherDisplay:10.37,2013-04-20 15:22:00,
2013-04-20 11:27:00,36.4,30.5,30.99,West,262,7.0,17.0,79,0.00,CLR,CLR,0.04,WeatherDisplay:10.37,2013-04-20 15:27:00,
2013-04-20 11:32:00,36.7,30.1,30.99,West,260,10.0,17.0,77,0.01,RA,RA,0.05,WeatherDisplay:10.37,2013-04-20 15:32:00,
2013-04-20 11:37:00,37.2,31.0,31.00,WSW,256,12.0,18.0,78,0.00,RA,RA,0.05,WeatherDisplay:10.37,2013-04-20 15:37:00,
2013-04-20 11:42:00,37.6,30.4,31.00,West,261,9.0,17.0,75,0.00,,,0.05,WeatherDisplay:10.37,2013-04-20 15:42:00,
2013-04-20 11:47:00,37.9,30.4,31.00,West,264,13.0,23.0,74,0.00,CLR,CLR,0.05,WeatherDisplay:10.37,2013-04-20 15:47:00,
2013-04-20 11:52:00,37.7,29.5,31.00,WSW,256,10.0,22.0,72,0.00,CLR,CLR,0.05,WeatherDisplay:10.37,2013-04-20 15:52:00,
2013-04-20 11:57:00,38.2,30.3,31.00,WSW,257,10.0,20.0,73,0.00,CLR,CLR,0.05,WeatherDisplay:10.37,2013-04-20 15:57:00,
2013-04-20 12:02:00,38.5,30.6,31.01,WSW,251,12.0,16.0,73,0.00,CLR,CLR,0.05,WeatherDisplay:10.37,2013-04-20 16:02:00,
2013-04-20 12:07:00,38.5,29.9,31.01,WSW,252,8.0,21.0,71,0.00,CLR,CLR,0.05,WeatherDisplay:10.37,2013-04-20 16:07:00,
2013-04-20 12:12:00,38.3,29.0,31.01,West,262,12.0,20.0,69,0.00,CLR,CLR,0.05,WeatherDisplay:10.37,2013-04-20 16:12:00,
2013-04-20 12:17:00,38.5,29.5,31.01,West,267,8.0,18.0,70,0.00,CLR,CLR,0.05,WeatherDisplay:10.37,2013-04-20 16:17:00,
2013-04-20 12:22:00,38.2,27.8,31.02,West,275,10.0,18.0,66,0.00,CLR,CLR,0.05,WeatherDisplay:10.37,2013-04-20 16:22:00,
2013-04-20 12:27:00,37.9,28.3,31.02,West,270,7.0,15.0,68,0.00,CLR,CLR,0.05,WeatherDisplay:10.37,2013-04-20 16:27:00,
2013-04-20 12:32:00,38.4,30.2,31.02,West,272,8.0,16.0,72,0.00,CLR,CLR,0.05,WeatherDisplay:10.37,2013-04-20 16:32:00,
2013-04-20 12:37:00,38.6,29.3,31.02,West,261,12.0,17.0,69,0.00,CLR,CLR,0.05,WeatherDisplay:10.37,2013-04-20 16:37:00,
2013-04-20 12:42:00,38.4,28.8,31.03,West,268,10.0,17.0,68,0.00,CLR,CLR,0.05,WeatherDisplay:10.37,2013-04-20 16:42:00,
2013-04-20 12:47:00,38.6,30.0,31.03,West,275,7.0,18.0,71,0.00,CLR,CLR,0.05,WeatherDisplay:10.37,2013-04-20 16:47:00,
2013-04-20 12:52:00,38.4,28.4,31.03,West,272,9.0,20.0,67,0.00,CLR,CLR,0.05,WeatherDisplay:10.37,2013-04-20 16:52:00,
2013-04-20 12:57:00,39.2,29.9,31.03,West,266,9.0,16.0,69,0.00,CLR,CLR,0.05,WeatherDisplay:10.37,2013-04-20 16:57:00,
2013-04-20 13:02:00,39.1,29.0,31.03,West,260,12.0,23.0,67,0.00,CLR,CLR,0.05,WeatherDisplay:10.37,2013-04-20 17:02:00,
2013-04-20 13:07:00,39.0,28.9,31.04,West,259,12.0,22.0,67,0.00,CLR,CLR,0.05,WeatherDisplay:10.37,2013-04-20 17:07:00,
2013-04-20 13:12:00,39.2,28.8,31.04,West,271,12.0,22.0,66,0.00,CLR,CLR,0.05,WeatherDisplay:10.37,2013-04-20 17:12:00,
2013-04-20 13:17:00,38.9,28.5,31.04,West,267,13.0,17.0,66,0.00,CLR,CLR,0.05,WeatherDisplay:10.37,2013-04-20 17:17:00,
2013-04-20 13:22:00,38.8,28.4,31.04,West,266,9.0,15.0,66,0.00,CLR,CLR,0.05,WeatherDisplay:10.37,2013-04-20 17:22:00,
2013-04-20 13:27:00,39.1,28.7,31.05,West,266,13.0,17.0,66,0.00,CLR,CLR,0.05,WeatherDisplay:10.37,2013-04-20 17:27:00,
2013-04-20 13:32:00,38.9,28.5,31.05,West,269,15.0,20.0,66,0.00,CLR,CLR,0.05,WeatherDisplay:10.37,2013-04-20 17:32:00,
2013-04-20 13:37:00,39.1,28.3,31.05,West,277,10.0,21.0,65,0.00,CLR,CLR,0.05,WeatherDisplay:10.37,2013-04-20 17:37:00,
2013-04-20 13:42:00,38.9,28.1,31.05,WNW,282,10.0,17.0,65,0.00,CLR,CLR,0.05,WeatherDisplay:10.37,2013-04-20 17:42:00,
2013-04-20 13:47:00,39.1,28.7,31.05,West,278,14.0,20.0,66,0.00,CLR,CLR,0.05,WeatherDisplay:10.37,2013-04-20 17:47:00,
2013-04-20 13:52:00,38.9,27.3,31.05,West,277,10.0,16.0,63,0.00,CLR,CLR,0.05,WeatherDisplay:10.37,2013-04-20 17:52:00,
2013-04-20 13:57:00,38.9,28.1,31.05,West,277,9.0,18.0,65,0.00,CLR,CLR,0.05,WeatherDisplay:10.37,2013-04-20 17:57:00,
2013-04-20 14:02:00,39.3,28.5,31.06,West,273,9.0,14.0,65,0.00,CLR,CLR,0.05,WeatherDisplay:10.37,2013-04-20 18:02:00,
2013-04-20 14:07:00,39.6,28.8,31.06,West,269,8.0,17.0,65,0.00,CLR,CLR,0.05,WeatherDisplay:10.37,2013-04-20 18:07:00,
2013-04-20 14:12:00,39.4,28.2,31.06,WNW,282,9.0,16.0,64,0.00,CLR,CLR,0.05,WeatherDisplay:10.37,2013-04-20 18:12:00,
2013-04-20 14:17:00,39.8,29.0,31.06,West,276,10.0,21.0,65,0.00,CLR,CLR,0.05,WeatherDisplay:10.37,2013-04-20 18:17:00,
2013-04-20 14:22:00,40.5,30.0,31.06,WSW,246,13.0,18.0,66,0.00,CLR,CLR,0.05,WeatherDisplay:10.37,2013-04-20 18:22:00,
2013-04-20 14:27:00,40.6,28.2,31.07,WSW,245,10.0,20.0,61,0.00,CLR,CLR,0.05,WeatherDisplay:10.37,2013-04-20 18:27:00,
2013-04-20 14:32:00,40.0,28.0,31.07,West,267,7.0,16.0,62,0.00,CLR,CLR,0.05,WeatherDisplay:10.37,2013-04-20 18:32:00,
2013-04-20 14:37:00,40.2,28.2,31.07,West,276,9.0,18.0,62,0.00,CLR,CLR,0.05,WeatherDisplay:10.37,2013-04-20 18:37:00,
2013-04-20 14:42:00,40.5,28.5,31.07,West,275,10.0,18.0,62,0.00,CLR,CLR,0.05,WeatherDisplay:10.37,2013-04-20 18:42:00,
2013-04-20 14:47:00,40.7,28.3,31.08,West,279,9.0,16.0,61,0.00,CLR,CLR,0.05,WeatherDisplay:10.37,2013-04-20 18:47:00,
2013-04-20 14:52:00,40.7,28.2,31.08,WNW,285,7.0,17.0,61,0.00,CLR,CLR,0.05,WeatherDisplay:10.37,2013-04-20 18:52:00,
2013-04-20 14:57:00,40.9,28.1,31.08,West,275,10.0,20.0,60,0.00,CLR,CLR,0.05,WeatherDisplay:10.37,2013-04-20 18:57:00,
2013-04-20 15:02:00,40.7,29.1,31.08,West,265,9.0,13.0,63,0.00,CLR,CLR,0.05,WeatherDisplay:10.37,2013-04-20 19:02:00,
2013-04-20 15:07:00,40.8,28.4,31.08,West,279,7.0,16.0,61,0.00,CLR,CLR,0.05,WeatherDisplay:10.37,2013-04-20 19:07:00,
2013-04-20 15:12:00,40.4,27.2,31.09,WNW,294,10.0,20.0,59,0.00,CLR,CLR,0.05,WeatherDisplay:10.37,2013-04-20 19:12:00,
2013-04-20 15:17:00,40.1,27.7,31.09,WNW,293,9.0,20.0,61,0.00,CLR,CLR,0.05,WeatherDisplay:10.37,2013-04-20 19:17:00,
2013-04-20 15:22:00,40.3,28.0,31.09,WNW,283,9.0,17.0,61,0.00,CLR,CLR,0.05,WeatherDisplay:10.37,2013-04-20 19:22:00,
2013-04-20 15:27:00,40.5,28.1,31.10,WNW,284,10.0,15.0,61,0.00,CLR,CLR,0.05,WeatherDisplay:10.37,2013-04-20 19:27:00,
2013-04-20 15:32:00,40.6,28.5,31.10,West,277,8.0,15.0,62,0.00,CLR,CLR,0.05,WeatherDisplay:10.37,2013-04-20 19:32:00,
2013-04-20 15:37:00,40.6,27.8,31.10,WNW,284,10.0,20.0,60,0.00,CLR,CLR,0.05,WeatherDisplay:10.37,2013-04-20 19:37:00,
2013-04-20 15:42:00,41.2,28.7,31.10,WNW,284,9.0,18.0,61,0.00,CLR,CLR,0.05,WeatherDisplay:10.37,2013-04-20 19:42:00,
2013-04-20 15:47:00,41.4,28.5,31.10,West,276,10.0,17.0,60,0.00,CLR,CLR,0.05,WeatherDisplay:10.37,2013-04-20 19:47:00,
2013-04-20 15:52:00,41.6,29.2,31.10,West,271,7.0,15.0,61,0.00,CLR,CLR,0.05,WeatherDisplay:10.37,2013-04-20 19:52:00,
2013-04-20 15:57:00,41.9,29.4,31.10,WSW,258,8.0,18.0,61,0.00,CLR,CLR,0.05,WeatherDisplay:10.37,2013-04-20 19:57:00,
2013-04-20 16:02:00,42.2,30.1,31.11,West,277,8.0,15.0,62,0.00,CLR,CLR,0.05,WeatherDisplay:10.37,2013-04-20 20:02:00,
2013-04-20 16:07:00,42.0,27.9,31.11,NW,307,7.0,12.0,57,0.00,CLR,CLR,0.05,WeatherDisplay:10.37,2013-04-20 20:07:00,
2013-04-20 16:12:00,41.3,27.6,31.11,WNW,296,8.0,17.0,58,0.00,CLR,CLR,0.05,WeatherDisplay:10.37,2013-04-20 20:12:00,
2013-04-20 16:17:00,40.6,27.0,31.12,WNW,287,8.0,17.0,58,0.00,CLR,CLR,0.05,WeatherDisplay:10.37,2013-04-20 20:17:00,
2013-04-20 16:22:00,40.7,28.3,31.12,WNW,290,8.0,13.0,61,0.00,CLR,CLR,0.05,WeatherDisplay:10.37,2013-04-20 20:22:00,
2013-04-20 16:27:00,41.0,27.3,31.12,WNW,296,3.0,15.0,58,0.00,CLR,CLR,0.05,WeatherDisplay:10.37,2013-04-20 20:27:00,
2013-04-20 16:32:00,40.8,27.2,31.12,WNW,302,9.0,18.0,58,0.00,CLR,CLR,0.05,WeatherDisplay:10.37,2013-04-20 20:32:00,
2013-04-20 16:37:00,41.1,28.2,31.12,WNW,282,6.0,12.0,60,0.00,CLR,CLR,0.05,WeatherDisplay:10.37,2013-04-20 20:37:00,
2013-04-20 16:42:00,41.5,28.7,31.13,West,279,10.0,17.0,60,0.00,CLR,CLR,0.05,WeatherDisplay:10.37,2013-04-20 20:42:00,
2013-04-20 16:47:00,41.5,28.7,31.13,West,270,9.0,17.0,60,0.00,CLR,CLR,0.05,WeatherDisplay:10.37,2013-04-20 20:47:00,
2013-04-20 16:52:00,42.1,28.8,31.13,West,268,6.0,16.0,59,0.00,CLR,CLR,0.05,WeatherDisplay:10.37,2013-04-20 20:52:00,
2013-04-20 16:57:00,41.8,26.4,31.13,WNW,288,7.0,14.0,54,0.00,CLR,CLR,0.05,WeatherDisplay:10.37,2013-04-20 20:57:00,
2013-04-20 17:02:00,41.1,26.6,31.13,WNW,291,9.0,14.0,56,0.00,CLR,CLR,0.05,WeatherDisplay:10.37,2013-04-20 21:02:00,
2013-04-20 17:07:00,40.9,28.1,31.14,West,276,8.0,14.0,60,0.00,CLR,CLR,0.05,WeatherDisplay:10.37,2013-04-20 21:07:00,
2013-04-20 17:12:00,40.9,26.0,31.14,WNW,283,10.0,15.0,55,0.00,CLR,CLR,0.05,WeatherDisplay:10.37,2013-04-20 21:12:00,
2013-04-20 17:17:00,41.1,26.6,31.14,West,280,7.0,20.0,56,0.00,CLR,CLR,0.05,WeatherDisplay:10.37,2013-04-20 21:17:00,
2013-04-20 17:22:00,41.5,26.5,31.14,West,271,8.0,13.0,55,0.00,CLR,CLR,0.05,WeatherDisplay:10.37,2013-04-20 21:22:00,
2013-04-20 17:27:00,41.6,26.2,31.14,WNW,284,5.0,16.0,54,0.00,CLR,CLR,0.05,WeatherDisplay:10.37,2013-04-20 21:27:00,
2013-04-20 17:32:00,41.7,26.7,31.14,West,271,12.0,18.0,55,0.00,CLR,CLR,0.05,WeatherDisplay:10.37,2013-04-20 21:32:00,
2013-04-20 17:37:00,41.5,26.5,31.15,West,270,7.0,14.0,55,0.00,CLR,CLR,0.05,WeatherDisplay:10.37,2013-04-20 21:37:00,
2013-04-20 17:42:00,41.6,25.7,31.15,WNW,291,9.0,14.0,53,0.00,CLR,CLR,0.05,WeatherDisplay:10.37,2013-04-20 21:42:00,
2013-04-20 17:47:00,41.0,24.7,31.15,WNW,292,7.0,16.0,52,0.00,CLR,CLR,0.05,WeatherDisplay:10.37,2013-04-20 21:47:00,
2013-04-20 17:52:00,41.0,25.6,31.15,West,279,9.0,15.0,54,0.00,CLR,CLR,0.05,WeatherDisplay:10.37,2013-04-20 21:52:00,
2013-04-20 17:57:00,41.1,25.3,31.16,West,275,8.0,15.0,53,0.00,CLR,CLR,0.05,WeatherDisplay:10.37,2013-04-20 21:57:00,
2013-04-20 18:02:00,41.0,25.2,31.16,WNW,290,5.0,16.0,53,0.00,CLR,CLR,0.05,WeatherDisplay:10.37,2013-04-20 22:02:00,
2013-04-20 18:07:00,41.0,26.5,31.16,WNW,296,7.0,14.0,56,0.00,CLR,CLR,0.05,WeatherDisplay:10.37,2013-04-20 22:07:00,
2013-04-20 18:12:00,41.0,25.6,31.17,West,273,13.0,18.0,54,0.00,CLR,CLR,0.05,WeatherDisplay:10.37,2013-04-20 22:12:00,
2013-04-20 18:17:00,40.7,25.8,31.17,West,269,12.0,16.0,55,0.00,CLR,CLR,0.05,WeatherDisplay:10.37,2013-04-20 22:17:00,
2013-04-20 18:22:00,40.6,24.8,31.17,West,278,7.0,14.0,53,0.00,CLR,CLR,0.05,WeatherDisplay:10.37,2013-04-20 22:22:00,
2013-04-20 18:27:00,40.9,26.9,31.17,West,281,5.0,12.0,57,0.00,CLR,CLR,0.05,WeatherDisplay:10.37,2013-04-20 22:27:00,
2013-04-20 18:32:00,40.9,25.5,31.17,WNW,289,8.0,13.0,54,0.00,CLR,CLR,0.05,WeatherDisplay:10.37,2013-04-20 22:32:00,
2013-04-20 18:37:00,41.0,25.2,31.17,WNW,300,9.0,17.0,53,0.00,CLR,CLR,0.05,WeatherDisplay:10.37,2013-04-20 22:37:00,
2013-04-20 18:42:00,40.6,24.4,31.17,WNW,293,7.0,16.0,52,0.00,CLR,CLR,0.05,WeatherDisplay:10.37,2013-04-20 22:42:00,
2013-04-20 18:47:00,40.0,23.8,31.17,West,278,7.0,14.0,52,0.00,CLR,CLR,0.05,WeatherDisplay:10.37,2013-04-20 22:47:00,
2013-04-20 18:52:00,39.8,24.5,31.18,West,273,6.0,10.0,54,0.00,CLR,CLR,0.05,WeatherDisplay:10.37,2013-04-20 22:52:00,
2013-04-20 18:57:00,40.1,24.7,31.18,West,279,6.0,12.0,54,0.00,CLR,CLR,0.05,WeatherDisplay:10.37,2013-04-20 22:57:00,
2013-04-20 19:02:00,40.4,24.6,31.18,WNW,294,8.0,14.0,53,0.00,CLR,CLR,0.05,WeatherDisplay:10.37,2013-04-20 23:02:00,
2013-04-20 19:07:00,40.4,24.6,31.18,WNW,284,7.0,14.0,53,0.00,CLR,CLR,0.05,WeatherDisplay:10.37,2013-04-20 23:07:00,
2013-04-20 19:12:00,40.1,23.8,31.18,West,279,6.0,16.0,52,0.00,CLR,CLR,0.05,WeatherDisplay:10.37,2013-04-20 23:12:00,
2013-04-20 19:17:00,39.8,24.5,31.18,West,275,7.0,10.0,54,0.00,CLR,CLR,0.05,WeatherDisplay:10.37,2013-04-20 23:17:00,
2013-04-20 19:22:00,39.7,23.9,31.18,West,281,2.0,10.0,53,0.00,CLR,CLR,0.05,WeatherDisplay:10.37,2013-04-20 23:22:00,
2013-04-20 19:27:00,39.6,24.7,31.18,West,277,5.0,9.0,55,0.00,CLR,CLR,0.05,WeatherDisplay:10.37,2013-04-20 23:27:00,
2013-04-20 19:32:00,39.5,24.2,31.19,West,271,3.0,8.0,54,0.00,CLR,CLR,0.05,WeatherDisplay:10.37,2013-04-20 23:32:00,
2013-04-20 19:37:00,39.5,24.2,31.19,WNW,286,3.0,9.0,54,0.00,CLR,CLR,0.05,WeatherDisplay:10.37,2013-04-20 23:37:00,
2013-04-20 19:42:00,39.3,24.9,31.19,WNW,289,5.0,8.0,56,0.00,CLR,CLR,0.05,WeatherDisplay:10.37,2013-04-20 23:42:00,
2013-04-20 19:47:00,39.2,24.8,31.20,WNW,283,2.0,8.0,56,0.00,CLR,CLR,0.05,WeatherDisplay:10.37,2013-04-20 23:47:00,
2013-04-20 19:52:00,38.9,24.5,31.20,West,279,2.0,6.0,56,0.00,CLR,CLR,0.05,WeatherDisplay:10.37,2013-04-20 23:52:00,
2013-04-20 19:57:00,38.6,24.2,31.20,WNW,294,3.0,6.0,56,0.00,CLR,CLR,0.05,WeatherDisplay:10.37,2013-04-20 23:57:00,
2013-04-20 20:02:00,38.4,24.9,31.21,WNW,288,5.0,9.0,58,0.00,CLR,CLR,0.05,WeatherDisplay:10.37,2013-04-21 00:02:00,
2013-04-20 20:07:00,38.2,24.7,31.21,WNW,293,1.0,6.0,58,0.00,CLR,CLR,0.05,WeatherDisplay:10.37,2013-04-21 00:07:00,
2013-04-20 20:12:00,37.9,24.8,31.21,NW,315,2.0,4.0,59,0.00,CLR,CLR,0.05,WeatherDisplay:10.37,2013-04-21 00:12:00,
2013-04-20 20:17:00,37.7,24.7,31.22,NW,307,1.0,4.0,59,0.00,CLR,CLR,0.05,WeatherDisplay:10.37,2013-04-21 00:17:00,
2013-04-20 20:22:00,37.6,25.0,31.22,NW,304,1.0,8.0,60,0.00,CLR,CLR,0.05,WeatherDisplay:10.37,2013-04-21 00:22:00,
2013-04-20 20:27:00,37.5,25.2,31.22,NW,319,3.0,7.0,61,0.00,CLR,CLR,0.05,WeatherDisplay:10.37,2013-04-21 00:27:00,
2013-04-20 20:32:00,37.3,25.1,31.22,WNW,295,0.0,3.0,61,0.00,CLR,CLR,0.05,WeatherDisplay:10.37,2013-04-21 00:32:00,
2013-04-20 20:37:00,37.1,25.3,31.23,NW,313,2.0,5.0,62,0.00,CLR,CLR,0.05,WeatherDisplay:10.37,2013-04-21 00:37:00,
2013-04-20 20:42:00,37.0,25.2,31.23,NW,324,1.0,4.0,62,0.00,CLR,CLR,0.05,WeatherDisplay:10.37,2013-04-21 00:42:00,
2013-04-20 20:47:00,36.9,25.5,31.23,NW,322,2.0,4.0,63,0.00,CLR,CLR,0.05,WeatherDisplay:10.37,2013-04-21 00:47:00,
2013-04-20 20:52:00,36.7,25.7,31.23,NW,318,0.0,2.0,64,0.00,CLR,CLR,0.05,WeatherDisplay:10.37,2013-04-21 00:52:00,
2013-04-20 20:57:00,36.5,25.5,31.23,NW,316,0.0,0.0,64,0.00,CLR,CLR,0.05,WeatherDisplay:10.37,2013-04-21 00:57:00,
2013-04-20 21:02:00,36.2,25.9,31.24,NW,316,0.0,0.0,66,0.00,CLR,CLR,0.05,WeatherDisplay:10.37,2013-04-21 01:02:00,
2013-04-20 21:07:00,35.9,26.0,31.24,NW,316,0.0,0.0,67,0.00,CLR,CLR,0.05,WeatherDisplay:10.37,2013-04-21 01:07:00,
2013-04-20 21:12:00,35.5,26.0,31.24,NW,316,0.0,0.0,68,0.00,CLR,CLR,0.05,WeatherDisplay:10.37,2013-04-21 01:12:00,
2013-04-20 21:17:00,35.1,26.6,31.25,NW,316,0.0,0.0,71,0.00,CLR,CLR,0.05,WeatherDisplay:10.37,2013-04-21 01:17:00,
2013-04-20 21:22:00,34.6,27.1,31.25,NW,316,0.0,0.0,74,0.00,CLR,CLR,0.05,WeatherDisplay:10.37,2013-04-21 01:22:00,
2013-04-20 21:27:00,33.9,27.1,31.25,NW,316,0.0,0.0,76,0.00,CLR,CLR,0.05,WeatherDisplay:10.37,2013-04-21 01:27:00,
2013-04-20 21:32:00,33.4,27.0,31.26,NW,316,0.0,0.0,77,0.00,CLR,CLR,0.05,WeatherDisplay:10.37,2013-04-21 01:32:00,
2013-04-20 21:37:00,32.8,27.0,31.26,NW,316,0.0,0.0,79,0.00,CLR,CLR,0.05,WeatherDisplay:10.37,2013-04-21 01:37:00,
2013-04-20 21:42:00,32.4,27.2,31.26,NW,316,0.0,0.0,81,0.00,CLR,CLR,0.05,WeatherDisplay:10.37,2013-04-21 01:42:00,
2013-04-20 21:47:00,31.9,27.1,31.27,NW,316,0.0,0.0,82,0.00,CLR,CLR,0.05,WeatherDisplay:10.37,2013-04-21 01:47:00,
2013-04-20 21:52:00,31.5,27.3,31.27,NW,316,0.0,0.0,84,0.00,CLR,CLR,0.05,WeatherDisplay:10.37,2013-04-21 01:52:00,
2013-04-20 21:57:00,31.2,27.2,31.27,NW,316,0.0,0.0,85,0.00,CLR,CLR,0.05,WeatherDisplay:10.37,2013-04-21 01:57:00,
2013-04-20 22:02:00,30.9,27.2,31.27,NW,316,0.0,0.0,86,0.00,CLR,CLR,0.05,WeatherDisplay:10.37,2013-04-21 02:02:00,
2013-04-20 22:07:00,30.8,27.4,31.27,NW,316,0.0,0.0,87,0.00,CLR,CLR,0.05,WeatherDisplay:10.37,2013-04-21 02:07:00,
2013-04-20 22:12:00,30.7,27.6,31.27,NW,316,0.0,0.0,88,0.00,CLR,CLR,0.05,WeatherDisplay:10.37,2013-04-21 02:12:00,
2013-04-20 22:17:00,30.7,27.9,31.28,NW,316,0.0,0.0,89,0.00,CLR,CLR,0.05,WeatherDisplay:10.37,2013-04-21 02:17:00,
2013-04-20 22:22:00,30.8,28.2,31.28,NW,316,0.0,0.0,90,0.00,CLR,CLR,0.05,WeatherDisplay:10.37,2013-04-21 02:22:00,
2013-04-20 22:27:00,30.8,28.2,31.28,NW,316,0.0,0.0,90,0.00,CLR,CLR,0.05,WeatherDisplay:10.37,2013-04-21 02:27:00,
2013-04-20 22:32:00,30.9,28.3,31.28,NW,316,0.0,0.0,90,0.00,CLR,CLR,0.05,WeatherDisplay:10.37,2013-04-21 02:32:00,
2013-04-20 22:37:00,30.8,28.2,31.28,NW,316,0.0,0.0,90,0.00,CLR,CLR,0.05,WeatherDisplay:10.37,2013-04-21 02:37:00,
2013-04-20 22:42:00,30.7,28.1,31.28,NW,316,0.0,0.0,90,0.00,CLR,CLR,0.05,WeatherDisplay:10.37,2013-04-21 02:42:00,
2013-04-20 22:47:00,30.5,27.9,31.28,NW,316,0.0,0.0,90,0.00,CLR,CLR,0.05,WeatherDisplay:10.37,2013-04-21 02:47:00,
2013-04-20 22:52:00,30.3,27.7,31.28,NW,316,0.0,0.0,90,0.00,CLR,CLR,0.05,WeatherDisplay:10.37,2013-04-21 02:52:00,
2013-04-20 22:57:00,30.4,27.5,31.28,NW,316,0.0,0.0,89,0.00,CLR,CLR,0.05,WeatherDisplay:10.37,2013-04-21 02:57:00,
2013-04-20 23:02:00,30.4,27.5,31.28,NW,316,0.0,0.0,89,0.00,CLR,CLR,0.05,WeatherDisplay:10.37,2013-04-21 03:02:00,
2013-04-20 23:07:00,30.3,27.4,31.29,NW,316,0.0,0.0,89,0.00,CLR,CLR,0.05,WeatherDisplay:10.37,2013-04-21 03:07:00,
2013-04-20 23:12:00,30.7,26.8,31.29,NNW,346,0.0,0.0,85,0.00,CLR,CLR,0.05,WeatherDisplay:10.37,2013-04-21 03:12:00,
2013-04-20 23:17:00,30.6,26.6,31.29,North,3,0.0,0.0,85,0.00,CLR,CLR,0.05,WeatherDisplay:10.37,2013-04-21 03:17:00,
2013-04-20 23:22:00,30.3,26.4,31.30,North,1,0.0,0.0,85,0.00,CLR,CLR,0.05,WeatherDisplay:10.37,2013-04-21 03:22:00,
2013-04-20 23:27:00,30.2,26.2,31.30,North,1,0.0,0.0,85,0.00,CLR,CLR,0.05,WeatherDisplay:10.37,2013-04-21 03:27:00,
2013-04-20 23:32:00,30.1,26.4,31.30,North,1,0.0,0.0,86,0.00,CLR,CLR,0.05,WeatherDisplay:10.37,2013-04-21 03:32:00,
2013-04-20 23:37:00,30.0,26.6,31.30,North,1,0.0,0.0,87,0.00,CLR,CLR,0.05,WeatherDisplay:10.37,2013-04-21 03:37:00,
2013-04-20 23:42:00,30.0,26.3,31.30,North,1,0.0,0.0,86,0.00,CLR,CLR,0.05,WeatherDisplay:10.37,2013-04-21 03:42:00,
2013-04-20 23:47:00,29.9,26.2,31.31,North,1,0.0,0.0,86,0.00,CLR,CLR,0.05,WeatherDisplay:10.37,2013-04-21 03:47:00,
2013-04-20 23:52:00,29.8,26.1,31.31,North,0,0.0,0.0,86,0.00,CLR,CLR,0.05,WeatherDisplay:10.37,2013-04-21 03:52:00,
2013-04-20 23:57:00,29.8,26.1,31.31,North,0,0.0,0.0,86,0.00,CLR,CLR,0.05,WeatherDisplay:10.37,2013-04-21 03:57:00,